Theta_e
308 308 308 308 307 305 305 305 299 315 316 303 303 298 301 301 303 307 304 306 305 304 305 304 306 306 308 313 313 307 311 311 303 305 311 311 309 307 307 303 303 306 305 303
308 308 307 308 307 306 301 300 302 313 313 296 299 303 303 304 303 303 303 303 306 306 303 302 306 309 314 313 312 311 313 308 301 302 308 310 306 307 309 312 313 306 301 303
306 307 306 307 307 306 302 301 296 303 306 305 300 299 301 302 307 304 304 303 305 304 302 305 303 306 312 313 312 318 319 313 307 301 304 307 305 305 307 310 304 304 304 306
306 305 306 306 307 307 302 301 298 302 297 300 302 303 301 299 302 307 305 303 303 302 300 301 301 306 310 313 313 312 320 310 309 307 308 308 307 306 306 305 307 304 306 307
305 305 306 306 307 307 300 298 299 303 300 301 300 300 300 301 300 304 303 302 303 304 303 303 301 305 308 310 312 311 318 308 310 304 307 307 306 308 308 307 307 307 308 309
305 305 305 306 306 306 301 305 305 300 297 298 296 297 300 301 303 304 306 306 303 302 304 307 308 310 313 313 312 314 315 310 308 302 306 306 302 306 308 309 310 309 305 312
304 305 305 306 307 306 301 301 300 296 292 296 296 297 299 298 300 298 304 308 305 308 312 312 312 309 308 312 315 317 313 313 310 304 306 296 307 313 311 309 311 312 314 315
304 304 305 305 306 307 302 302 299 296 292 296 296 297 298 300 300 300 301 307 311 318 314 308 305 303 304 306 311 314 317 315 305 303 302 305 307 311 310 308 309 314 314 314
304 304 305 305 305 306 304 301 303 297 293 293 298 296 298 295 296 298 303 311 313 314 308 305 299 296 300 299 307 314 314 309 310 305 300 297 308 313 317 317 305 315 316 315
304 304 304 305 305 305 303 301 310 301 293 298 298 295 295 299 298 299 302 304 307 312 304 300 298 299 304 300 303 306 305 304 306 305 301 305 314 314 315 303 306 319 319 318
303 304 304 305 305 305 303 300 308 302 296 298 300 300 296 295 297 294 299 301 306 305 301 300 301 300 304 304 309 309 304 300 305 308 302 298 315 313 305 315 321 318 323 323
302 303 304 304 304 305 304 298 307 309 299 298 303 303 303 300 299 297 301 298 299 311 307 304 306 304 306 306 299 312 304 306 306 309 307 315 318 320 324 326 320 318 322 325
301 302 303 304 304 305 304 300 307 301 297 298 298 297 303 306 304 304 297 301 305 305 309 307 311 306 308 301 304 309 313 313 307 312 315 315 319 319 319 318 320 321 323 325
301 302 303 304 304 305 304 300 302 303 298 291 297 308 304 305 306 304 305 305 309 309 307 304 306 304 308 306 305 307 309 314 309 311 316 318 319 320 321 320 321 322 322 322
302 302 303 304 304 304 304 303 303 305 297 291 294 301 304 306 306 304 306 307 305 303 302 304 304 311 309 309 308 305 312 308 310 308 318 318 314 319 319 320 320 321 320 320
301 302 303 303 303 303 301 296 303 304 304 294 289 304 303 305 304 302 304 304 303 303 302 305 308 312 306 304 301 308 310 313 313 311 317 317 315 323 321 320 320 321 321 321
301 301 302 303 303 302 297 295 299 304 304 295 291 295 302 305 304 302 302 306 303 302 302 304 305 307 307 305 299 308 311 313 312 312 312 316 319 316 320 321 321 320 321 321
300 300 302 302 302 302 297 302 303 304 302 299 292 294 299 304 298 297 305 300 301 302 300 304 302 305 306 300 307 308 311 314 315 315 314 319 321 321 322 321 320 319 318 318
300 299 301 300 299 296 300 305 307 304 300 292 294 291 292 303 299 301 301 303 296 302 297 298 301 302 299 304 307 309 310 312 313 316 317 318 318 319 320 319 319 317 316 318
300 299 294 292 300 304 303 298 297 296 297 297 292 297 294 300 298 296 298 299 295 293 296 301 296 296 306 308 310 310 312 313 314 312 311 313 316 318 318 320 320 319 318 317
297 293 292 302 303 299 295 291 290 292 290 295 295 296 295 301 296 296 300 295 295 290 294 294 294 294 302 308 308 312 311 312 312 313 314 315 315 319 318 317 319 320 318 317
299 297 301 301 295 291 288 288 291 291 288 295 293 294 297 299 304 299 300 295 296 288 298 293 291 298 307 307 308 310 311 311 311 312 312 313 313 314 316 318 318 320 320 320
299 295 292 291 291 285 284 283 287 288 293 295 296 294 297 299 301 298 297 291 291 299 293 290 293 303 307 309 308 308 309 310 310 309 310 312 312 313 313 317 319 320 320 317
291 289 284 287 286 288 289 291 291 297 297 296 296 296 296 300 295 297 290 295 296 289 287 289 300 306 306 307 307 307 306 308 308 307 307 306 307 311 312 316 319 317 318 320
290 291 284 287 291 293 294 295 297 299 301 299 298 298 299 295 292 295 293 290 288 290 290 299 305 306 306 305 306 306 307 308 308 308 307 306 307 308 309 314 319 320 320 318
293 292 289 292 292 293 295 296 297 301 300 300 298 292 291 290 293 290 288 288 287 293 299 301 304 304 304 305 305 306 307 308 309 310 311 311 310 310 313 314 316 318 319 318
291 291 295 293 294 294 295 297 298 304 298 293 295 289 288 294 291 289 291 291 293 298 300 302 303 304 304 306 305 306 307 307 310 312 313 314 316 315 316 315 319 318 322 322
Wind_Speed
12 12 12 11 12 18 15 8 7 9 7 8 9 16 21 20 25 24 22 21 20 21 23 24 21 23 22 21 22 25 21 10 12 21 19 19 19 19 19 10 13 10 9 2
11 10 9 9 9 9 7 6 9 6 7 9 13 18 24 25 25 25 27 23 19 19 22 22 19 22 18 18 18 20 16 14 11 17 15 13 15 21 14 11 10 11 9 9
10 10 8 8 9 7 7 6 6 8 9 12 18 20 21 23 24 26 27 26 22 21 22 21 21 22 19 16 15 7 7 10 14 12 17 15 19 18 17 14 12 13 14 14
10 10 9 8 7 8 6 6 6 10 6 11 11 15 18 23 23 22 22 24 26 21 21 23 23 21 22 20 5 4 4 11 15 19 23 18 17 20 20 20 13 12 10 7
9 9 9 9 7 7 7 7 7 8 12 16 17 13 18 22 25 27 22 25 21 22 22 22 21 22 20 15 13 14 10 10 13 19 21 21 21 18 23 20 19 19 16 14
9 10 9 9 8 5 6 5 12 6 8 13 13 14 19 18 22 26 26 25 22 25 25 22 20 21 15 19 4 13 14 12 14 18 21 21 22 20 15 15 18 16 15 15
8 9 11 10 9 9 7 8 9 8 12 13 14 16 17 18 21 23 33 30 21 22 21 22 21 25 19 21 12 19 16 15 12 13 17 24 15 18 17 17 12 11 15 12
10 10 10 11 10 10 8 8 6 10 12 14 15 16 15 16 15 22 29 28 21 3 10 10 15 14 17 23 24 15 19 15 12 13 16 17 18 5 13 16 17 12 13 8
10 10 9 9 8 7 8 7 5 7 9 12 8 13 13 12 9 20 28 18 16 21 9 12 17 16 16 19 24 10 4 7 12 14 18 18 4 5 17 2 10 9 12 20
11 10 9 8 9 7 8 7 4 5 10 17 17 11 9 7 6 11 15 11 16 24 11 13 14 16 20 18 25 15 11 2 22 15 10 0 7 7 12 7 0 10 11 8
8 8 9 10 8 10 7 7 5 5 8 16 21 18 17 14 10 5 12 10 15 16 10 13 13 13 17 20 20 17 7 3 14 14 10 7 8 11 12 5 4 10 17 18
9 9 10 11 10 10 9 10 4 5 6 13 22 19 18 20 14 9 4 8 19 9 3 10 6 7 5 6 15 12 13 13 14 8 7 27 16 7 11 10 10 9 16 17
9 10 10 10 11 11 11 9 3 4 6 12 16 17 21 18 18 13 9 3 6 11 8 6 4 5 5 3 12 15 23 9 4 5 14 16 18 13 7 11 12 14 16 16
9 11 11 11 12 12 11 9 6 3 5 7 7 7 9 15 14 18 15 15 15 12 8 7 6 2 3 2 6 7 7 13 17 10 16 20 17 17 15 17 14 17 14 13
8 8 8 9 9 9 8 9 8 7 4 5 11 19 22 16 12 13 11 10 10 10 6 6 7 1 3 2 2 5 8 6 10 1 13 13 5 7 14 15 14 13 12 14
8 8 7 5 7 7 7 5 10 9 8 4 6 6 11 11 11 10 10 9 6 6 4 7 6 6 3 1 3 3 8 4 16 8 12 18 16 17 14 14 13 12 13 13
3 5 6 6 6 7 5 2 3 10 4 5 6 4 5 12 11 9 7 8 6 5 6 5 3 3 8 2 3 5 8 6 7 18 18 6 18 10 15 14 14 12 13 13
5 3 5 6 6 10 8 10 15 10 6 4 6 4 5 8 7 9 7 7 7 5 5 4 5 7 4 3 6 5 12 16 13 15 20 8 13 13 14 14 10 12 12 13
4 2 6 3 5 8 7 4 7 7 5 4 6 8 2 5 7 6 3 6 6 5 7 8 4 2 2 8 3 5 6 6 14 12 9 12 14 15 10 10 10 9 10 12
4 2 3 5 3 14 6 2 4 5 6 6 8 7 4 6 8 5 5 6 5 4 8 4 7 8 3 5 8 3 3 8 9 11 10 10 15 12 7 5 7 9 6 9
3 4 4 3 4 3 3 4 6 7 6 7 9 11 3 3 3 5 3 4 5 5 4 9 8 9 9 9 1 7 2 2 3 3 7 7 8 13 11 10 7 8 9 8
4 4 4 1 4 3 5 5 5 8 7 6 13 9 6 2 2 2 2 3 5 5 6 4 10 7 15 16 16 8 4 2 3 3 4 7 7 6 6 10 9 10 10 12
2 3 3 3 5 6 7 9 7 6 5 5 9 7 3 4 2 1 2 4 4 3 3 5 5 8 9 13 9 7 2 4 5 5 5 6 6 5 2 8 9 6 12 10
2 3 4 5 7 7 4 6 4 2 3 11 8 7 3 2 6 2 3 2 3 4 5 8 7 9 12 10 8 5 4 3 6 8 8 8 8 9 6 6 10 7 4 10
4 5 5 8 4 6 5 9 4 2 4 5 6 3 3 4 4 2 1 3 4 6 6 3 6 8 9 9 7 4 2 4 6 6 7 8 9 9 10 10 7 13 9 10
4 5 5 5 7 5 5 3 3 2 5 6 4 3 3 3 2 5 3 4 3 3 6 8 5 9 7 6 5 5 5 2 1 4 3 4 10 10 9 9 8 9 9 7
4 3 4 6 7 4 3 2 2 1 5 4 3 4 4 4 1 4 3 1 4 4 5 7 8 6 4 5 7 5 4 2 4 5 4 4 4 4 4 4 2 6 7 9
Wind_Direction
304 307 308 311 324 328 304 280 259 124 166 221 233 240 250 259 270 274 253 268 255 279 290 292 268 222 239 221 209 226 211 237 238 258 212 212 236 217 232 242 238 261 279 176
297 304 306 315 325 344 320 266 259 205 209 247 246 255 258 249 255 253 264 246 243 262 274 282 281 279 232 237 206 217 205 218 228 257 260 212 218 246 222 231 267 270 264 270
295 304 302 313 314 328 310 283 271 204 199 251 269 281 282 274 253 245 256 258 251 238 255 260 268 274 271 256 200 216 239 208 217 238 244 208 212 229 239 219 211 229 244 270
283 300 299 307 314 320 294 245 255 290 282 222 244 253 262 273 267 258 244 250 251 245 242 253 249 250 262 253 140 173 179 226 214 225 256 269 207 222 229 235 234 249 254 259
277 290 289 290 302 313 266 297 335 336 301 294 282 275 271 267 262 271 251 245 246 252 248 236 248 243 250 271 181 194 213 227 227 236 236 247 261 235 211 222 230 222 228 253
289 285 290 284 287 294 272 294 315 280 278 274 271 263 264 280 314 272 275 276 228 245 248 245 255 259 281 303 175 246 204 198 212 232 237 252 248 248 243 219 224 221 220 103
280 286 287 273 269 265 289 302 315 280 277 266 265 281 284 313 300 290 295 279 297 231 251 246 237 255 264 269 231 235 208 203 209 226 223 236 244 240 231 251 243 222 107 139
266 275 282 275 266 252 268 281 284 291 279 277 282 281 281 297 308 303 292 287 269 94 278 236 232 240 240 244 258 214 199 215 212 227 232 242 237 249 288 233 232 160 115 122
263 270 279 274 254 249 264 267 239 271 280 266 273 321 283 297 345 311 296 251 296 300 242 218 220 219 219 226 239 202 230 342 210 208 239 239 169 352 335 257 211 147 166 165
260 262 275 266 245 234 263 270 249 261 266 269 281 273 317 296 296 288 280 336 269 267 225 233 212 229 222 224 223 176 175 236 248 219 228 263 88 7 10 235 170 37 139 122
266 264 272 270 266 248 252 266 254 227 274 277 286 282 282 288 282 298 317 312 205 232 220 228 234 227 218 237 230 209 165 41 227 222 211 211 178 119 155 227 75 90 91 99
266 267 277 256 256 258 241 267 249 257 245 285 304 291 279 274 280 312 326 295 296 322 315 235 291 272 247 246 217 222 179 166 232 292 248 143 179 160 116 140 136 134 114 118
260 266 276 256 257 255 231 272 324 310 282 271 252 255 249 239 245 236 245 227 293 316 329 309 306 288 27 268 269 215 205 209 192 219 122 130 112 78 56 318 134 122 115 124
262 269 265 257 261 255 233 264 273 225 257 276 297 324 230 231 227 224 236 264 283 301 290 287 282 319 303 59 298 311 23 186 192 235 153 121 137 150 172 190 116 120 125 134
271 275 271 265 264 233 253 262 257 213 236 298 304 305 278 269 205 232 239 254 277 288 297 299 302 14 351 63 53 348 2 10 277 117 124 115 127 174 168 131 121 123 135 121
276 276 269 272 297 230 251 269 225 236 224 274 290 303 245 200 208 207 231 239 257 258 302 317 272 128 22 159 102 121 309 187 24 37 321 141 151 210 118 118 122 124 117 132
254 291 271 239 257 247 231 289 289 319 343 249 258 263 228 205 184 196 209 225 243 253 272 232 272 338 218 145 108 154 200 242 110 63 30 352 113 112 105 109 106 117 120 122
212 292 298 295 302 280 260 233 209 243 258 263 267 260 238 199 181 193 193 194 214 219 264 248 244 261 322 11 128 133 340 178 167 151 154 204 77 90 105 104 129 116 123 120
210 331 326 293 229 237 253 74 176 205 239 282 272 266 198 239 223 184 239 199 201 223 217 239 278 268 239 19 308 170 153 302 110 115 100 106 123 104 94 129 119 122 120 128
249 81 222 217 198 107 63 245 215 208 203 226 255 285 259 276 209 171 199 197 215 226 209 233 212 248 182 280 32 112 299 73 99 124 127 125 123 123 106 101 94 113 121 131
215 213 228 73 143 150 202 232 206 200 219 219 225 239 227 284 285 217 17 268 208 217 215 211 199 217 176 150 289 286 349 59 61 58 124 124 125 134 145 152 155 141 135 128
325 322 295 169 199 192 229 209 207 216 219 213 203 207 182 223 58 296 346 279 315 216 176 211 234 227 171 183 182 170 230 201 169 142 104 87 90 62 94 132 147 147 139 150
257 214 244 203 188 214 226 203 207 199 206 145 127 181 122 147 82 263 276 247 236 303 275 216 248 184 169 139 139 122 213 241 247 215 203 181 153 128 282 144 147 145 136 110
240 226 212 232 207 225 223 299 319 346 205 170 164 142 145 142 193 186 243 286 281 246 214 225 138 111 110 128 135 146 169 266 238 225 209 204 197 165 205 224 125 70 293 140
244 222 239 223 279 258 135 221 196 294 69 84 100 101 152 152 186 187 324 218 244 248 207 72 114 120 120 114 121 122 142 226 245 225 190 180 184 186 205 229 194 171 174 138
247 242 272 336 298 309 327 34 132 131 115 108 96 180 172 162 182 178 214 223 207 331 100 103 77 91 92 123 140 79 72 356 218 230 147 223 194 187 181 194 221 190 168 150
244 249 257 232 253 269 291 337 54 166 176 156 192 198 149 125 154 207 183 330 115 84 78 84 95 99 86 113 121 119 105 109 40 46 26 22 336 34 113 140 144 184 152 134